Погода Сосуново

Погода Сосуново : погода сейчас, прогноз погоды и архив. Всё, что Вы хотите узнать о погоде Сосуново!

Хотите узнать прогноз погоды Сосуново? Тогда Вам сюда: Погода Сосуново

Поиск расширенной информации на нашем сайте:

Другие новости

Новости СМИ2

Главная страница сайта

Новости сайта

03.07.2017

Напоминаем, что на нашем специализированном сайте Метеоцентр.Азия вы можете получить высокодетализированные автоматические прогнозы погоды по пунктам России, СНГ и мира в авиационном формате (включающие направление и скорость ветра, видимость, явления погоды, количество и форму облачности, нижнюю и верхнюю границу облачности).


Погода Сосуново - сегодня

Время (UTC), дата Ветер
(°,м/с) 
Видим.   Явления Облачность Т
(°С)
Тd
(°С)
f(%) Тe
(°С)
Pmin
(гПа)
dP
(гПа)
Po
(мм)
O2
(г/м3)
Тmin Tmax R s Состояние
почвы
21 21.11.17 270 (З) 20000 м    ясно 
-12.1 -16.4 70 -17  1012.1  -2.4  759  321  -12.2      20  равномерный
мокрый или
старый снег
100% 
00 22.11.17 250 (З) 6{10}  20000 м    4/0 верхняя 
[Cc]
-10.5 -15.7 66 -16  1008.7  -3.4  756  318  -12.3         
03 22.11.17 190 (Ю) 20000 м    ясно 
-0.8 -9.5 52 1005.2  -3.4  754  305           
06 22.11.17 тихо ()   20000 м    3/3 1000 м 
[Cu hum]
+1.2 -6.6 56 +1  1004.1  -1.1  753  303           
09 22.11.17 270 (З) 20000 м    ясно 
-6.6 -9.4 80 -9  1005.1  754  312    +1.6       
12 22.11.17 260 (З) 5{12}  20000 м    ясно 
-0.1 -10.3 46 -3  1005.9  0.8  754  305           
15 22.11.17 270 (З) 20000 м    ясно 
-8.7 -12.5 74 -10  1006.4  0.5  755  315           
18 22.11.17 310 (СЗ) 20000 м    ясно 
-7.6 -13.3 64 -9  1006.6  0.2  755  314           
21 22.11.17 250 (З) 20000 м    ясно 
-12.6 -15.2 81 -18  1006.6  755  320  -13      20  равномерный
мокрый или
старый снег
100% 
00 23.11.17 280 (З) 20000 м    ясно 
-4.9 -16 41 -8  1007.3  0.7  755  311  -13.5         
03 23.11.17 260 (З) 20000 м    ясно 
-1.9 -16.3 32 -5  1005.4  -1.9  754  307           
06 23.11.17 260 (З) 20000 м    ясно 
-2.3 -15.9 34 -5  1005  -0.4  753  307           
09 23.11.17 270 (З) 20000 м    ясно 
-5.4 -16.2 42 -9  1006.4  1.4  755  311    -1.5       
12 23.11.17 270 (З) 20000 м    4/0 средняя 
[As trans]
-6.8 -16.3 47 -12  1006.3  0.1  754  313           
15 23.11.17 270 (З) 8-11{12}  20000 м    ясно 
-8.3 -17.5 47 -14  1005.6  -0.7  754  315           
18 23.11.17 270 (З) 7{12}  20000 м    ясно 
-8.6 -18.8 44 -14  1005.5  -0.2  754  315           
21 23.11.17 270 (З) 7{11}  20000 м    ясно 
-10 -20 44 -16  1005.6  0.2  754  317  -10      19  равномерный
мокрый или
старый снег
100% 
00 24.11.17 270 (З) 9-14{15}  20000 м    ясно 
-9.4 -21.1 38 -16  1006.8  1.2  755  317  -10.6         
03 24.11.17 280 (З) 9-14{17}  20000 м    ясно 
-7.2 -22.2 29 -13  1006.4  -0.4  755  314           
06 24.11.17 260 (З) 5{14}  20000 м    3/3 600 м 
[Cu hum]
-8.4 -22.1 32 -13  1009  2.6  756  316           
09 24.11.17 260 (З) 20000 м    ясно 
-11.5 -24.3 34 -15  1011.5  2.5  758  321    -6.6       
12 24.11.17 290 (З) 20000 м    ясно 
-13.6 -25.5 36 -16  1013.3  1.7  760  324           
15 24.11.17 270 (З) 20000 м    ясно 
-18.3 -24.4 59 -19  1013.8  0.5  760  330           
18 24.11.17 270 (З) 20000 м    ясно 
-21.4 -24.7 75 -22  1014.6  0.7  761  334           
21 24.11.17 260 (З) 20000 м    ясно 
-22.2 -26.2 70 -25  1015  0.4  761  336  -22.9      18  равномерный
мокрый или
старый снег
100% 
Время (UTC), дата Ветер
(°,м/с) 
Видим.   Явления Облачность Т
(°С)
Тd
(°С)
f(%) Тe
(°С)
Pmin
(гПа)
dP
(гПа)
Po
(мм)
O2
(г/м3)
Тmin Tmax R s Состояние
почвы

Для получения пояснительной информации подведите курсор к названию столбца.

ПОГОДА Сосуново - архив

Всё, что Вы хотите узнать о погоде Сосуново - удобно и подробно!

Выберите нужную дату (начиная с 1 января 2015* года) и нажмите кнопку "Найти".
Будут отображены архивные сводки погоды по пункту Сосуново, начиная с указанной даты.


Отображать данные в формате CSV (для использования в таблицах Excel)


Внимание! Наш архив погоды предназначен исключительно для личного некоммерческого использования в познавательных целях. Если Вам необходимы официальные справки о состоянии погоды (для производственных, юридических, коммерческих и т.п. целей), обращайтесь в органы Росгидромета.

*Примечание: данная дата относится к архиву по метеостанциям СССР (Россия, СНГ, Балтия).
Архив по метеостанциям Зарубежной Европы и Азии (кроме Китая) хранится 10 дней, по другим регионам земного шара (Китай, Африка, Америка, Австралия, Океания) - 1 день.

Сосуново - район местоположения метеостанции


Название, широта, долгота, высота метеостанции:
Сосуново 46.5°ш. 138.3°д. 4 м над ур. моря [Российская Федерация]

Дополнительная информация

В oтличие oт бoльшинства пoгoдных сайтoв мы публикуем пoдрoбную метеoинфoрмацию в детальнoм прoфессиoнальнoм фoрмате.

Характеристики температуры и влажнoсти вoздуха измеряются на высoте 2 м в тени вдали oт зданий и деревьев.
Скoрoсть ветра измеряется на высoте 10 м (на урoвне рoста челoвека скoрoсть ветра ниже в 1.5-2 раза). Если метеoстанция нахoдится в гoрoде или в лесу, тo скoрoсть ветра занижена на 2-4 м/с пo сравнению с oткрытым местoм. Скoрoсть ветра над акватoриями крупных рек и oзёр, а также на вершинах хoлмoв на 2-5 м/с выше, чем в oбычных услoвиях.
Атмoсфернoе давление в разных тoчках местнoсти мoжет значительнo oтличаться oт давления на метеoстанции, в зависимoсти oт услoвий рельефа (при пoдъёме на 10 м давление пoнижается примернo на 1 мм рт.ст.).